EN

Hourly Weather Dziepolc

Today, 29 October, Thursday

Time Temperature Precipitation Wind Pressure Humidity
00:00 +10°C° 0 mm 3 mps 737 mmHg 76%
01:00 +10°C° 0 mm 3 mps 737 mmHg 77%
02:00 +9°C° 0 mm 3 mps 737 mmHg 80%
03:00 +9°C° 0 mm 3 mps 737 mmHg 83%
04:00 +8°C° 0 mm 3 mps 737 mmHg 86%
05:00 +8°C° 0 mm 3 mps 737 mmHg 86%
06:00 +9°C° 0 mm 3 mps 737 mmHg 85%
07:00 +8°C° 0 mm 4 mps 737 mmHg 84%
08:00 +10°C° 0 mm 4 mps 737 mmHg 78%
09:00 +10°C° 0 mm 5 mps 737 mmHg 72%
10:00 +12°C° 0 mm 5 mps 737 mmHg 67%
11:00 +12°C° 0 mm 5 mps 736 mmHg 68%
12:00 +11°C° 0 mm 6 mps 736 mmHg 69%
13:00 +11°C° 0 mm 6 mps 736 mmHg 71%
14:00 +10°C° 0.1 mm 5 mps 736 mmHg 72%
15:00 +10°C° 0.1 mm 5 mps 736 mmHg 74%
16:00 +11°C° 0.1 mm 4 mps 736 mmHg 76%
17:00 +10°C° 0.1 mm 4 mps 737 mmHg 76%
18:00 +8°C° 0.1 mm 4 mps 737 mmHg 76%
19:00 +8°C° 0.1 mm 4 mps 738 mmHg 77%
20:00 +7°C° 0 mm 4 mps 738 mmHg 77%
21:00 +7°C° 0 mm 4 mps 739 mmHg 78%
22:00 +6°C° 0 mm 4 mps 739 mmHg 78%
23:00 +6°C° 0 mm 4 mps 739 mmHg 79%

Tomorrow, 30 October, Friday

Time Temperature Precipitation Wind Pressure Humidity
00:00 +5°C° 0 mm 5 mps 740 mmHg 80%
01:00 +5°C° 0 mm 5 mps 740 mmHg 81%
02:00 +5°C° 0 mm 5 mps 740 mmHg 82%
03:00 +5°C° 0 mm 5 mps 740 mmHg 84%
04:00 +4°C° 0 mm 4 mps 740 mmHg 85%
05:00 +4°C° 0 mm 4 mps 740 mmHg 85%
06:00 +4°C° 0 mm 4 mps 740 mmHg 85%
07:00 +4°C° 0 mm 4 mps 740 mmHg 85%
08:00 +5°C° 0 mm 4 mps 740 mmHg 79%
09:00 +6°C° 0 mm 4 mps 740 mmHg 74%
10:00 +7°C° 0 mm 4 mps 740 mmHg 69%
11:00 +7°C° 0.3 mm 4 mps 740 mmHg 74%
12:00 +7°C° 0.3 mm 4 mps 739 mmHg 80%
13:00 +7°C° 0.3 mm 4 mps 739 mmHg 85%
14:00 +7°C° 0.8 mm 4 mps 738 mmHg 88%
15:00 +7°C° 0.8 mm 4 mps 738 mmHg 90%
16:00 +7°C° 0.8 mm 4 mps 738 mmHg 92%
17:00 +8°C° 1.2 mm 4 mps 738 mmHg 94%
18:00 +8°C° 1.2 mm 4 mps 738 mmHg 95%
19:00 +10°C° 1.2 mm 4 mps 738 mmHg 96%
20:00 +10°C° 1 mm 4 mps 738 mmHg 96%
21:00 +10°C° 1 mm 4 mps 738 mmHg 96%
22:00 +10°C° 1 mm 4 mps 738 mmHg 96%
23:00 +10°C° 1.6 mm 4 mps 738 mmHg 96%

Day after tomorrow, 31 October, Saturday

Time Temperature Precipitation Wind Pressure Humidity
00:00 +9°C° 1.6 mm 3 mps 738 mmHg 96%
01:00 +9°C° 1.6 mm 2 mps 738 mmHg 96%
02:00 +9°C° 0.8 mm 2 mps 738 mmHg 96%
03:00 +10°C° 0.8 mm 1 mps 739 mmHg 96%
04:00 +9°C° 0.8 mm 1 mps 739 mmHg 95%
05:00 +9°C° 0.2 mm 1 mps 740 mmHg 95%
06:00 +9°C° 0.2 mm 1 mps 740 mmHg 95%
07:00 +8°C° 0.2 mm 2 mps 741 mmHg 95%
08:00 +10°C° 0 mm 1 mps 741 mmHg 90%
09:00 +10°C° 0 mm 1 mps 742 mmHg 86%
10:00 +11°C° 0 mm 1 mps 742 mmHg 81%
11:00 +11°C° 0 mm 1 mps 742 mmHg 75%
12:00 +12°C° 0 mm 1 mps 742 mmHg 68%
13:00 +12°C° 0 mm 2 mps 742 mmHg 62%
14:00 +12°C° 0 mm 2 mps 742 mmHg 64%
15:00 +11°C° 0 mm 1 mps 743 mmHg 66%
16:00 +11°C° 0 mm 1 mps 743 mmHg 68%
17:00 +10°C° 0 mm 1 mps 743 mmHg 72%
18:00 +8°C° 0 mm 2 mps 743 mmHg 77%
19:00 +8°C° 0 mm 2 mps 744 mmHg 81%
20:00 +7°C° 0 mm 2 mps 744 mmHg 84%
21:00 +8°C° 0 mm 1 mps 744 mmHg 87%
22:00 +8°C° 0 mm 1 mps 744 mmHg 90%
23:00 +6°C° 0 mm 2 mps 744 mmHg 91%

1 November, Sunday

Time Temperature Precipitation Wind Pressure Humidity
00:00 +6°C° 0 mm 2 mps 744 mmHg 93%
01:00 +6°C° 0 mm 2 mps 744 mmHg 94%
02:00 +5°C° 0 mm 2 mps 744 mmHg 94%
03:00 +5°C° 0 mm 2 mps 744 mmHg 93%
04:00 +5°C° 0 mm 2 mps 744 mmHg 93%
05:00 +5°C° 0 mm 2 mps 744 mmHg 92%
06:00 +4°C° 0 mm 2 mps 744 mmHg 92%
07:00 +3°C° 0 mm 3 mps 744 mmHg 91%
08:00 +4°C° 0 mm 3 mps 744 mmHg 85%
09:00 +6°C° 0 mm 4 mps 744 mmHg 79%
10:00 +7°C° 0 mm 4 mps 744 mmHg 72%
11:00 +8°C° 0 mm 4 mps 743 mmHg 69%
12:00 +10°C° 0 mm 4 mps 743 mmHg 66%
13:00 +10°C° 0 mm 4 mps 743 mmHg 62%
14:00 +10°C° 0 mm 4 mps 742 mmHg 66%
15:00 +8°C° 0 mm 4 mps 742 mmHg 70%
16:00 +8°C° 0 mm 3 mps 742 mmHg 73%
17:00 +8°C° 0 mm 3 mps 742 mmHg 76%
18:00 +7°C° 0 mm 3 mps 742 mmHg 79%
19:00 +5°C° 0 mm 3 mps 742 mmHg 82%
20:00 +5°C° 0 mm 3 mps 742 mmHg 82%
21:00 +5°C° 0 mm 3 mps 741 mmHg 83%
22:00 +5°C° 0 mm 3 mps 741 mmHg 83%
23:00 +5°C° 0 mm 3 mps 741 mmHg 84%

2 November, Monday

Time Temperature Precipitation Wind Pressure Humidity
00:00 +4°C° 0 mm 3 mps 741 mmHg 85%
01:00 +4°C° 0 mm 3 mps 741 mmHg 86%
02:00 +4°C° 0 mm 3 mps 741 mmHg 86%
03:00 +4°C° 0 mm 3 mps 740 mmHg 87%
04:00 +4°C° 0 mm 3 mps 740 mmHg 87%
05:00 +4°C° 0 mm 3 mps 740 mmHg 86%
06:00 +4°C° 0 mm 3 mps 740 mmHg 85%
07:00 +4°C° 0 mm 3 mps 740 mmHg 83%
08:00 +6°C° 0 mm 4 mps 740 mmHg 78%
09:00 +7°C° 0 mm 4 mps 740 mmHg 73%
10:00 +10°C° 0 mm 4 mps 740 mmHg 67%
11:00 +11°C° 0 mm 4 mps 740 mmHg 65%
12:00 +12°C° 0 mm 4 mps 740 mmHg 62%
13:00 +12°C° 0 mm 4 mps 740 mmHg 60%
14:00 +12°C° 0 mm 4 mps 740 mmHg 62%
15:00 +11°C° 0 mm 4 mps 739 mmHg 64%
16:00 +10°C° 0 mm 4 mps 739 mmHg 66%
17:00 +10°C° 0 mm 4 mps 739 mmHg 66%
18:00 +8°C° 0 mm 4 mps 739 mmHg 66%
19:00 +8°C° 0 mm 4 mps 740 mmHg 66%
20:00 +8°C° 0 mm 4 mps 740 mmHg 66%
21:00 +8°C° 0 mm 4 mps 740 mmHg 66%
22:00 +8°C° 0 mm 4 mps 740 mmHg 66%
23:00 +8°C° 0 mm 4 mps 740 mmHg 67%

3 November, Tuesday

Time Temperature Precipitation Wind Pressure Humidity
00:00 +7°C° 0 mm 4 mps 739 mmHg 68%
01:00 +8°C° 0 mm 3 mps 739 mmHg 69%
02:00 +8°C° 0 mm 3 mps 739 mmHg 70%
03:00 +7°C° 0 mm 3 mps 739 mmHg 71%
04:00 +7°C° 0 mm 3 mps 739 mmHg 72%
05:00 +7°C° 0 mm 3 mps 740 mmHg 74%
06:00 +5°C° 0 mm 3 mps 740 mmHg 76%
07:00 +5°C° 0 mm 3 mps 740 mmHg 78%
08:00 +7°C° 0 mm 3 mps 740 mmHg 74%
09:00 +7°C° 0 mm 4 mps 740 mmHg 71%
10:00 +8°C° 0 mm 4 mps 740 mmHg 68%
11:00 +10°C° 0 mm 4 mps 740 mmHg 66%
12:00 +11°C° 0 mm 4 mps 740 mmHg 64%
13:00 +12°C° 0 mm 4 mps 740 mmHg 63%
14:00 +11°C° 0 mm 3 mps 740 mmHg 66%
15:00 +10°C° 0 mm 3 mps 740 mmHg 69%
16:00 +10°C° 0 mm 3 mps 740 mmHg 72%
17:00 +9°C° 0 mm 3 mps 741 mmHg 75%
18:00 +9°C° 0 mm 3 mps 741 mmHg 79%
19:00 +7°C° 0 mm 4 mps 741 mmHg 83%
20:00 +7°C° 0 mm 4 mps 741 mmHg 84%
21:00 +7°C° 0 mm 3 mps 742 mmHg 84%
22:00 +7°C° 0 mm 3 mps 742 mmHg 85%
23:00 +5°C° 0 mm 3 mps 742 mmHg 87%
Show more